CW6043 Weather Reports


Display with metric or nautical units.
time (UTC)temp
F
wind
direction
speed
MPH
gust
MPH
rain 1hr
in
rain 24hr
in
rain mn
in
humidity
%
barometer
mb
20190323232816 65 172 4.0 5.0 0.00 0.00 0.00 87 1013.9
20190323232319 65 172 0.0 4.0 0.00 0.00 0.00 87 1013.9
20190323231819 65 172 2.0 5.0 0.00 0.00 0.00 86 1013.9
20190323231316 65 172 4.0 5.0 0.00 0.00 0.00 85 1013.9
20190323230819 65 172 9.0 9.0 0.00 0.00 0.00 85 1013.9
20190323230316 66 172 2.0 4.0 0.00 0.00 0.00 84 1013.9
20190323225816 66 172 5.0 5.0 0.00 0.00 0.00 84 1013.9
20190323225316 66 172 5.0 7.0 0.00 0.00 0.00 83 1013.9
20190323224816 66 172 0.0 7.0 0.00 0.00 0.00 82 1013.9
20190323224316 66 172 3.0 12.0 0.00 0.00 0.00 79 1013.7
20190323223819 67 172 8.0 10.0 0.00 0.00 0.00 77 1013.7
20190323223319 67 172 1.0 4.0 0.00 0.00 0.00 77 1013.7
20190323222819 66 172 0.0 6.0 0.00 0.00 0.00 77 1013.8
20190323222316 66 172 5.0 5.0 0.00 0.00 0.00 77 1013.8
20190323221819 66 172 5.0 5.0 0.00 0.00 0.00 77 1013.8
20190323221316 66 172 6.0 6.0 0.00 0.00 0.00 78 1013.7
20190323220822 66 172 6.0 6.0 0.00 0.00 0.00 78 1013.7
20190323220319 66 172 3.0 7.0 0.00 0.00 0.00 78 1013.7
20190323215816 66 172 2.0 7.0 0.00 0.00 0.00 77 1014.0
20190323215316 66 172 3.0 13.0 0.00 0.00 0.00 77 1014.0
20190323214816 66 172 4.0 6.0 0.00 0.00 0.00 77 1014.0
20190323214316 66 172 2.0 6.0 0.00 0.00 0.00 77 1014.0
20190323213819 66 172 0.0 5.0 0.00 0.00 0.00 77 1014.0
20190323213316 66 172 2.0 9.0 0.00 0.00 0.00 77 1014.0
20190323212816 66 172 3.0 10.0 0.00 0.00 0.00 76 1014.0
20190323212316 66 172 2.0 6.0 0.00 0.00 0.00 76 1014.0
20190323211816 66 172 2.0 10.0 0.00 0.00 0.00 76 1014.0
20190323211316 66 172 5.0 7.0 0.00 0.00 0.00 76 1013.9
20190323210819 66 175 11.0 14.0 0.00 0.00 0.00 76 1013.9
20190323210319 66 175 3.0 9.0 0.00 0.00 0.00 76 1013.9
20190323205819 66 174 2.0 11.0 0.00 0.00 0.00 76 1014.0
20190323205316 66 174 10.0 11.0 0.00 0.00 0.00 76 1014.0
20190323204816 66 174 4.0 13.0 0.00 0.00 0.00 76 1014.0
20190323204319 66 189 12.0 12.0 0.00 0.00 0.00 76 1014.2
20190323203816 66 191 9.0 19.0 0.00 0.00 0.00 75 1014.2
20190323203319 66 166 3.0 12.0 0.00 0.00 0.00 75 1014.2
20190323202816 66 165 5.0 11.0 0.00 0.00 0.00 75 1014.3
20190323202319 66 165 4.0 10.0 0.00 0.00 0.00 76 1014.3
20190323201816 66 162 7.0 7.0 0.00 0.00 0.00 76 1014.3
20190323201316 66 162 9.0 11.0 0.00 0.00 0.00 76 1014.3
20190323200816 66 159 3.0 12.0 0.00 0.00 0.00 76 1014.3
20190323200316 66 159 10.0 10.0 0.00 0.00 0.00 76 1014.3
20190323195816 66 159 5.0 12.0 0.00 0.00 0.00 76 1014.4
20190323195319 66 169 10.0 10.0 0.00 0.00 0.00 76 1014.4
20190323194822 66 167 11.0 15.0 0.00 0.00 0.00 77 1014.4
20190323194319 66 167 6.0 12.0 0.00 0.00 0.00 77 1014.5
20190323193816 66 169 12.0 15.0 0.00 0.00 0.00 77 1014.5
20190323193316 66 166 10.0 14.0 0.00 0.00 0.00 77 1014.5
20190323192816 66 161 5.0 15.0 0.00 0.00 0.00 77 1014.7
20190323192316 67 170 13.0 18.0 0.00 0.00 0.00 76 1014.7
20190323191819 67 161 6.0 16.0 0.00 0.00 0.00 78 1014.7
20190323191316 66 156 14.0 16.0 0.00 0.00 0.00 77 1014.9
20190323190816 66 166 9.0 17.0 0.00 0.00 0.00 77 1014.9
20190323190322 66 169 12.0 15.0 0.00 0.00 0.00 80 1014.9
20190323185816 66 169 9.0 17.0 0.00 0.00 0.00 80 1015.2
20190323185316 66 166 2.0 13.0 0.00 0.00 0.00 81 1015.2
20190323184819 65 168 5.0 18.0 0.00 0.00 0.00 83 1015.2
20190323184316 64 166 11.0 15.0 0.00 0.00 0.00 85 1015.6
20190323183816 64 158 8.0 14.0 0.00 0.00 0.00 83 1015.6
20190323183316 64 158 11.0 14.0 0.00 0.00 0.00 83 1015.6
20190323182816 63 158 0.0 10.0 0.00 0.00 0.00 83 1016.0
20190323182319 63 158 2.0 10.0 0.00 0.00 0.00 83 1016.0
20190323181816 63 158 5.0 12.0 0.00 0.00 0.00 83 1016.0
20190323181316 63 158 5.0 11.0 0.00 0.00 0.00 83 1016.2
20190323180822 63 158 4.0 12.0 0.00 0.00 0.00 83 1016.2
20190323180316 63 158 5.0 9.0 0.00 0.00 0.00 82 1016.2
20190323175819 63 157 5.0 14.0 0.00 0.00 0.00 83 1016.2
20190323175316 62 155 4.0 9.0 0.00 0.00 0.00 84 1016.2
20190323174816 62 155 4.0 11.0 0.00 0.00 0.00 84 1016.2
20190323174316 62 155 4.0 10.0 0.00 0.00 0.00 84 1016.3
20190323173816 62 154 3.0 12.0 0.00 0.00 0.00 85 1016.3
20190323173316 62 153 4.0 15.0 0.00 0.00 0.00 86 1016.3
20190323172816 62 156 4.0 13.0 0.00 0.00 0.00 88 1016.5
20190323172319 61 154 7.0 10.0 0.00 0.00 0.00 88 1016.5
20190323171819 61 153 7.0 11.0 0.00 0.00 0.00 88 1016.5
20190323171316 61 153 10.0 10.0 0.00 0.00 0.00 88 1016.6
20190323170819 61 153 5.0 10.0 0.00 0.00 0.00 88 1016.6
20190323170316 61 153 9.0 11.0 0.00 0.00 0.00 88 1016.6
20190323165819 61 153 3.0 10.0 0.00 0.00 0.00 88 1016.6
20190323165316 61 153 3.0 13.0 0.00 0.00 0.00 89 1016.6
20190323164816 61 153 3.0 9.0 0.00 0.00 0.00 88 1016.6
20190323164316 60 153 6.0 10.0 0.00 0.00 0.00 88 1016.7
20190323163816 60 153 3.0 10.0 0.00 0.00 0.00 88 1016.7
20190323163319 60 153 4.0 7.0 0.00 0.00 0.00 87 1016.7
20190323162816 60 153 7.0 12.0 0.00 0.00 0.00 87 1016.7
20190323162316 60 153 3.0 13.0 0.00 0.00 0.00 86 1016.7
20190323161816 61 153 4.0 7.0 0.00 0.00 0.00 85 1016.7
20190323161316 61 153 6.0 11.0 0.00 0.00 0.00 84 1016.7
20190323160819 61 153 5.0 7.0 0.00 0.00 0.00 82 1016.7
20190323160316 61 153 5.0 9.0 0.00 0.00 0.00 81 1016.7
20190323155816 62 153 6.0 12.0 0.00 0.00 0.00 77 1016.6
20190323155316 62 150 2.0 15.0 0.00 0.00 0.00 76 1016.6
20190323154819 62 124 6.0 12.0 0.00 0.00 0.00 76 1016.6
20190323154316 62 121 9.0 11.0 0.00 0.00 0.00 77 1016.6
20190323153816 62 103 7.0 10.0 0.00 0.00 0.00 79 1016.6
20190323153316 61 102 3.0 14.0 0.00 0.00 0.00 80 1016.6
20190323152816 60 92 2.0 12.0 0.00 0.00 0.00 81 1016.7
20190323152319 60 92 4.0 9.0 0.00 0.00 0.00 81 1016.7
20190323151816 59 92 2.0 9.0 0.00 0.00 0.00 82 1016.7
20190323151319 58 92 6.0 7.0 0.00 0.00 0.00 84 1016.8
20190323150819 58 92 2.0 7.0 0.00 0.00 0.00 83 1016.8
20190323150316 57 92 3.0 4.0 0.00 0.00 0.00 82 1016.8
20190323145816 57 92 0.0 2.0 0.00 0.00 0.00 81 1016.6
20190323145316 58 92 10.0 10.0 0.00 0.00 0.00 79 1016.6
20190323144819 59 92 6.0 11.0 0.00 0.00 0.00 75 1016.6
20190323144319 59 92 10.0 12.0 0.00 0.00 0.00 70 1016.7
20190323143819 60 92 10.0 11.0 0.00 0.00 0.00 68 1016.7
20190323143316 60 92 7.0 7.0 0.00 0.00 0.00 66 1016.7
20190323142819 59 92 4.0 6.0 0.00 0.00 0.00 66 1016.2
20190323142319 59 92 3.0 6.0 0.00 0.00 0.00 67 1016.2
20190323141816 59 92 0.0 6.0 0.00 0.00 0.00 67 1016.2
20190323141322 59 92 3.0 5.0 0.00 0.00 0.00 66 1016.4
20190323140816 59 92 1.0 9.0 0.00 0.00 0.00 65 1016.4
20190323140316 59 92 3.0 10.0 0.00 0.00 0.00 64 1016.4
20190323135816 59 92 0.0 7.0 0.00 0.00 0.00 63 1016.2
20190323135319 59 92 4.0 10.0 0.00 0.00 0.00 63 1016.2
20190323134816 59 92 2.0 7.0 0.00 0.00 0.00 63 1016.2
20190323134316 59 92 0.0 7.0 0.00 0.00 0.00 63 1016.0
20190323133816 59 92 0.0 4.0 0.00 0.00 0.00 63 1016.0
20190323133316 59 92 0.0 8.0 0.00 0.00 0.00 63 1016.0
20190323132819 59 92 5.0 5.0 0.00 0.00 0.00 63 1016.1
20190323132316 58 92 0.0 5.0 0.00 0.00 0.00 63 1016.1
20190323131816 58 92 0.0 5.0 0.00 0.00 0.00 63 1016.1
20190323131316 59 92 0.0 6.0 0.00 0.00 0.00 63 1016.2
20190323130819 59 92 0.0 3.0 0.00 0.00 0.00 63 1016.2
20190323130319 59 92 2.0 3.0 0.00 0.00 0.00 63 1016.2
20190323125816 58 92 1.0 9.0 0.00 0.00 0.00 63 1016.0
20190323125316 58 92 3.0 6.0 0.00 0.00 0.00 64 1016.0
20190323124816 58 92 3.0 6.0 0.00 0.00 0.00 65 1016.0
20190323124316 58 92 1.0 6.0 0.00 0.00 0.00 65 1015.6
20190323123816 58 92 2.0 3.0 0.00 0.00 0.00 65 1015.6
20190323123316 58 92 0.0 5.0 0.00 0.00 0.00 65 1015.6
20190323122816 58 92 0.0 5.0 0.00 0.00 0.00 66 1015.6
20190323122316 58 92 0.0 5.0 0.00 0.00 0.00 66 1015.6
20190323121816 57 92 3.0 4.0 0.00 0.00 0.00 66 1015.6
20190323121319 57 92 3.0 5.0 0.00 0.00 0.00 66 1015.7
20190323120816 57 92 0.0 2.0 0.00 0.00 0.00 66 1015.7
20190323120316 57 92 0.0 0.0 0.00 0.00 0.00 66 1015.7
20190323115816 57 92 0.0 0.0 0.00 0.00 0.00 65 1015.5
20190323115316 57 92 0.0 0.0 0.00 0.00 0.00 65 1015.5
20190323114816 57 92 0.0 1.0 0.00 0.00 0.00 65 1015.5
20190323114319 57 92 0.0 0.0 0.00 0.00 0.00 65 1015.5
20190323113816 57 92 0.0 1.0 0.00 0.00 0.00 65 1015.5
20190323113322 57 92 0.0 0.0 0.00 0.00 0.00 65 1015.5
20190323112816 57 92 0.0 0.0 0.00 0.00 0.00 65 1015.3
20190323112316 57 92 0.0 0.0 0.00 0.00 0.00 65 1015.3
20190323111822 57 92 0.0 0.0 0.00 0.00 0.00 65 1015.3
20190323111316 57 92 0.0 0.0 0.00 0.00 0.00 65 1015.0
20190323110816 57 92 0.0 0.0 0.00 0.00 0.00 64 1015.0
20190323110316 57 92 0.0 0.0 0.00 0.00 0.00 64 1015.0
20190323105816 57 92 0.0 0.0 0.00 0.00 0.00 64 1015.0
20190323105316 57 92 0.0 0.0 0.00 0.00 0.00 64 1015.0
20190323104819 57 92 0.0 0.0 0.00 0.00 0.00 64 1015.0
20190323104316 57 92 0.0 0.0 0.00 0.00 0.00 63 1015.0
20190323103816 57 92 0.0 0.0 0.00 0.00 0.00 63 1015.0
20190323103319 57 92 0.0 0.0 0.00 0.00 0.00 63 1015.0
20190323102816 57 92 0.0 0.0 0.00 0.00 0.00 62 1014.7
20190323102316 57 92 0.0 0.0 0.00 0.00 0.00 62 1014.7
20190323101816 57 92 0.0 3.0 0.00 0.00 0.00 62 1014.7
20190323101316 57 92 0.0 2.0 0.00 0.00 0.00 62 1014.4
20190323100816 57 92 0.0 2.0 0.00 0.00 0.00 61 1014.4
20190323100316 57 92 0.0 3.0 0.00 0.00 0.00 61 1014.4
20190323095819 58 92 0.0 2.0 0.00 0.00 0.00 61 1014.6
20190323095322 58 92 2.0 2.0 0.00 0.00 0.00 60 1014.6
20190323094816 58 92 0.0 2.0 0.00 0.00 0.00 60 1014.6
20190323094316 58 92 0.0 5.0 0.00 0.00 0.00 60 1014.7
20190323093819 58 92 0.0 4.0 0.00 0.00 0.00 59 1014.7
20190323093316 58 92 2.0 6.0 0.00 0.00 0.00 58 1014.7
20190323092818 58 92 2.0 6.0 0.00 0.00 0.00 58 1014.7
20190323092316 58 92 0.0 7.0 0.00 0.00 0.00 58 1014.7
20190323091816 58 92 1.0 7.0 0.00 0.00 0.00 58 1014.7
20190323091316 58 92 3.0 6.0 0.00 0.00 0.00 58 1014.8
20190323090819 58 92 4.0 7.0 0.00 0.00 0.00 58 1014.8
20190323090318 58 92 6.0 6.0 0.00 0.00 0.00 58 1014.8
20190323085819 58 92 0.0 1.0 0.00 0.00 0.00 58 1014.9
20190323085316 58 92 0.0 2.0 0.00 0.00 0.00 57 1014.9
20190323084815 58 92 0.0 6.0 0.00 0.00 0.00 57 1014.9
20190323084316 58 92 0.0 2.0 0.00 0.00 0.00 57 1015.1
20190323083816 58 92 0.0 9.0 0.00 0.00 0.00 56 1015.1
20190323083316 58 92 1.0 3.0 0.00 0.00 0.00 57 1015.1
20190323082816 58 92 2.0 4.0 0.00 0.00 0.00 56 1015.4
20190323082316 58 92 5.0 5.0 0.00 0.00 0.00 57 1015.4
20190323081816 58 92 2.0 2.0 0.00 0.00 0.00 57 1015.4
20190323081316 58 92 0.0 0.0 0.00 0.00 0.00 57 1015.5
20190323080816 58 92 0.0 0.0 0.00 0.00 0.00 57 1015.5
20190323080319 58 92 0.0 0.0 0.00 0.00 0.00 57 1015.5
20190323075816 58 92 0.0 0.0 0.00 0.00 0.00 57 1015.6
20190323075315 58 92 0.0 0.0 0.00 0.00 0.00 56 1015.6
20190323074816 58 92 0.0 0.0 0.00 0.00 0.00 56 1015.6
20190323074316 58 92 0.0 0.0 0.00 0.00 0.00 56 1015.7
20190323073816 58 92 0.0 0.0 0.00 0.00 0.00 56 1015.7
20190323073316 58 92 0.0 0.0 0.00 0.00 0.00 56 1015.7
20190323072816 58 92 0.0 0.0 0.00 0.00 0.00 55 1015.7
20190323072316 58 92 0.0 0.0 0.00 0.00 0.00 55 1015.7
20190323071816 58 92 0.0 0.0 0.00 0.00 0.00 55 1015.7
20190323071316 58 92 0.0 0.0 0.00 0.00 0.00 55 1015.5
20190323070819 58 92 0.0 0.0 0.00 0.00 0.00 55 1015.5
20190323070316 58 92 0.0 0.0 0.00 0.00 0.00 55 1015.5
20190323065819 58 92 0.0 0.0 0.00 0.00 0.00 55 1015.4
20190323065319 58 92 0.0 0.0 0.00 0.00 0.00 55 1015.4
20190323064822 58 92 0.0 0.0 0.00 0.00 0.00 55 1015.4
20190323064319 58 92 0.0 0.0 0.00 0.00 0.00 55 1015.4
20190323063816 58 92 0.0 0.0 0.00 0.00 0.00 55 1015.4
20190323063316 58 92 0.0 0.0 0.00 0.00 0.00 54 1015.4
20190323062819 58 92 0.0 0.0 0.00 0.00 0.00 54 1015.4
20190323062316 59 92 0.0 0.0 0.00 0.00 0.00 53 1015.4
20190323061816 59 92 0.0 0.0 0.00 0.00 0.00 53 1015.4
20190323061319 58 92 0.0 0.0 0.00 0.00 0.00 53 1015.5
20190323060816 58 92 0.0 0.0 0.00 0.00 0.00 54 1015.5
20190323060315 58 92 0.0 0.0 0.00 0.00 0.00 54 1015.5
20190323055816 59 92 0.0 0.0 0.00 0.00 0.00 53 1015.5
20190323055316 59 92 0.0 0.0 0.00 0.00 0.00 52 1015.5
20190323054815 59 92 0.0 0.0 0.00 0.00 0.00 52 1015.5
20190323054315 60 92 0.0 0.0 0.00 0.00 0.00 51 1015.6
20190323053815 60 92 0.0 0.0 0.00 0.00 0.00 50 1015.6
20190323053315 60 92 0.0 0.0 0.00 0.00 0.00 50 1015.6
20190323052816 60 92 0.0 0.0 0.00 0.00 0.00 50 1015.8
20190323052315 60 92 0.0 0.0 0.00 0.00 0.00 50 1015.8
20190323051816 60 92 0.0 0.0 0.00 0.00 0.00 50 1015.8
20190323051315 60 92 0.0 0.0 0.00 0.00 0.00 49 1016.0
20190323050816 61 92 0.0 0.0 0.00 0.00 0.00 49 1016.0
20190323050316 61 92 0.0 0.0 0.00 0.00 0.00 48 1016.0
20190323045822 61 92 0.0 0.0 0.00 0.00 0.00 48 1016.0
20190323045316 61 92 0.0 0.0 0.00 0.00 0.00 48 1016.0
20190323044815 61 92 0.0 0.0 0.00 0.00 0.00 47 1016.0
20190323044319 61 92 0.0 0.0 0.00 0.00 0.00 47 1016.1
20190323043815 61 92 0.0 0.0 0.00 0.00 0.00 47 1016.1
20190323043316 62 92 0.0 0.0 0.00 0.00 0.00 46 1016.1
20190323042819 62 92 0.0 0.0 0.00 0.00 0.00 46 1015.9
20190323042316 62 92 0.0 0.0 0.00 0.00 0.00 46 1015.9
20190323041816 62 92 0.0 4.0 0.00 0.00 0.00 46 1015.9
20190323041316 62 92 0.0 1.0 0.00 0.00 0.00 46 1015.5
20190323040816 62 92 0.0 3.0 0.00 0.00 0.00 45 1015.5
20190323040315 63 92 0.0 3.0 0.00 0.00 0.00 45 1015.5
20190323035816 63 92 0.0 3.0 0.00 0.00 0.00 45 1015.2
20190323035316 63 92 0.0 6.0 0.00 0.00 0.00 44 1015.2
20190323034815 63 92 0.0 9.0 0.00 0.00 0.00 44 1015.2
20190323034315 63 92 3.0 5.0 0.00 0.00 0.00 44 1015.5
20190323033816 63 92 0.0 2.0 0.00 0.00 0.00 44 1015.5
20190323033319 62 92 0.0 0.0 0.00 0.00 0.00 44 1015.5
20190323032816 62 92 0.0 0.0 0.00 0.00 0.00 44 1015.4
20190323032316 62 92 0.0 0.0 0.00 0.00 0.00 45 1015.4
20190323031816 62 92 0.0 0.0 0.00 0.00 0.00 45 1015.4
20190323031316 63 92 0.0 0.0 0.00 0.00 0.00 44 1015.7
20190323030816 63 92 0.0 0.0 0.00 0.00 0.00 44 1015.7
20190323030316 63 92 0.0 0.0 0.00 0.00 0.00 44 1015.7
20190323025817 63 92 0.0 0.0 0.00 0.00 0.00 44 1015.7
20190323025315 63 92 0.0 0.0 0.00 0.00 0.00 44 1015.7
20190323024815 63 92 0.0 0.0 0.00 0.00 0.00 45 1015.7
20190323024318 63 92 0.0 0.0 0.00 0.00 0.00 45 1015.7
20190323023816 63 92 0.0 0.0 0.00 0.00 0.00 46 1015.7
20190323023318 63 92 0.0 1.0 0.00 0.00 0.00 46 1015.7
20190323022819 63 92 0.0 0.0 0.00 0.00 0.00 46 1016.1
20190323022316 63 92 0.0 0.0 0.00 0.00 0.00 46 1016.1
20190323021816 63 92 0.0 0.0 0.00 0.00 0.00 45 1016.1
20190323021319 63 92 0.0 0.0 0.00 0.00 0.00 45 1016.4
20190323020816 63 92 0.0 0.0 0.00 0.00 0.00 45 1016.4
20190323020318 64 92 0.0 0.0 0.00 0.00 0.00 45 1016.4
20190323015816 64 92 0.0 0.0 0.00 0.00 0.00 45 1016.3
20190323015320 64 92 0.0 0.0 0.00 0.00 0.00 44 1016.3
20190323014816 64 92 0.0 0.0 0.00 0.00 0.00 44 1016.3
20190323014316 65 92 0.0 0.0 0.00 0.00 0.00 44 1016.5
20190323013816 65 92 0.0 0.0 0.00 0.00 0.00 44 1016.5
20190323013315 65 92 0.0 0.0 0.00 0.00 0.00 43 1016.5
20190323012815 65 92 0.0 0.0 0.00 0.00 0.00 43 1016.5
20190323012319 66 92 0.0 0.0 0.00 0.00 0.00 42 1016.5
20190323011816 66 92 0.0 0.0 0.00 0.00 0.00 42 1016.5
20190323011319 66 92 0.0 0.0 0.00 0.00 0.00 42 1016.7
20190323010821 66 92 0.0 2.0 0.00 0.00 0.00 41 1016.7
20190323010316 66 92 0.0 0.0 0.00 0.00 0.00 41 1016.7
20190323005815 67 92 0.0 0.0 0.00 0.00 0.00 40 1016.7
20190323005318 67 92 0.0 0.0 0.00 0.00 0.00 39 1016.7
20190323004816 67 92 0.0 0.0 0.00 0.00 0.00 38 1016.7
20190323004315 67 92 0.0 0.0 0.00 0.00 0.00 37 1016.6
20190323003815 68 92 0.0 0.0 0.00 0.00 0.00 37 1016.6
20190323003318 68 92 0.0 0.0 0.00 0.00 0.00 36 1016.6
20190323002821 69 92 0.0 0.0 0.00 0.00 0.00 35 1016.8
20190323002316 69 92 0.0 0.0 0.00 0.00 0.00 34 1016.8
20190323001815 69 92 0.0 3.0 0.00 0.00 0.00 33 1016.8
20190323001319 70 92 3.0 3.0 0.00 0.00 0.00 32 1016.6
20190323000818 70 92 0.0 3.0 0.00 0.00 0.00 31 1016.6
20190323000319 70 92 0.0 6.0 0.00 0.00 0.00 30 1016.6
20190322235816 71 92 0.0 0.0 0.00 0.00 0.00 31 1016.4
20190322235315 71 92 0.0 2.0 0.00 0.00 0.00 29 1016.4
20190322234816 71 92 0.0 4.0 0.00 0.00 0.00 28 1016.4
20190322234316 72 92 6.0 6.0 0.00 0.00 0.00 29 1016.3
20190322233816 72 92 3.0 4.0 0.00 0.00 0.00 29 1016.3
20190322233315 72 92 4.0 7.0 0.00 0.00 0.00 29 1016.3